Weather History for Flora, IL

Change the Weather History Date:

Sunday, December 8, 2013

  Actual Average (KEVV) Record (KEVV)
Temperature  
Mean Temperature 24 °F 37 °F  
Max Temperature 28 °F 46 °F 69 °F (1966)
Min Temperature 19 °F 29 °F 1 °F (1917)
Degree Days  
Heating Degree Days 42 28  
Month to date heating degree days 212  
Since 1 July heating degree days 1073  
Cooling Degree Days 0 0  
Month to date cooling degree days 0  
Year to date cooling degree days 1397  
Moisture  
Dew Point 21 °F    
Average Humidity 88    
Maximum Humidity 100    
Minimum Humidity 74    
Precipitation  
Precipitation 0.00 in 0.14 in 1.67 in (1972)
Month to date precipitation 1.06  
Year to date precipitation 42.61  
Snow  
Snow 0.00 in 0.00 in 4.20 in (1995)
Month to date snowfall 0.4  
Since 1 July snowfall 0.7  
Snow Depth -    
Sea Level Pressure  
Sea Level Pressure 30.19 in    
Wind  
Wind Speed 8 mph (East)    
Max Wind Speed 13 mph    
Max Gust Speed 18 mph    
Visibility 6 miles    
Events      
T = Trace of Precipitation, MM = Missing Value Source: NWS Daily Summary

Daily Weather History Graph

Daily Weather History Graph

Search for Another Location

Airport:

Trip Planner

Search our weather history database for the weather conditions in past years. The results will help you decide how hot, cold, wet, or windy it might be!

Date:

Astronomy

Dec. 08, 2013 Rise Set
Actual Time 6:59 AM CST 4:32 PM CST
Civil Twilight 6:29 AM CST 5:01 PM CST
Nautical Twilight 5:56 AM CST 5:35 PM CST
Astronomical Twilight 5:24 AM CST 6:07 PM CST
Moon 11:22 AM CST (12/8) 11:17 PM CST (12/8)
Length of Visible Light 10h 32m
Length of Day
9h 32m
Waxing Crescent, 40% of the Moon is Illuminated
Dec 8
Waxing Crescent
Dec 9
First Quarter
Dec 17
Full
Dec 25
Last Quarter
Jan 1
New

Hourly Weather History & Observations

Time (CST) Temp. Windchill Dew Point Humidity Pressure Visibility Wind Dir Wind Speed Gust Speed Precip Events Conditions
12:15 AM 19.0 °F 10.0 °F 12.0 °F 74% 30.47 in 10.0 mi NE 6.9 mph - N/A   Clear
12:35 AM 19.8 °F 9.9 °F 13.3 °F 76% 30.45 in 10.0 mi NE 8.1 mph - N/A   Clear
12:55 AM 19.9 °F 10.1 °F 13.5 °F 76% 30.45 in 10.0 mi ENE 8.1 mph - N/A   Clear
1:15 AM 19.9 °F 11.1 °F 13.8 °F 77% 30.43 in 10.0 mi NE 6.9 mph - N/A   Clear
1:35 AM 20.3 °F 10.6 °F 14.2 °F 77% 30.43 in 10.0 mi NE 8.1 mph - N/A   Clear
1:55 AM 20.3 °F 12.5 °F 14.2 °F 77% 30.41 in 10.0 mi ENE 5.8 mph - N/A   Clear
2:15 AM 20.7 °F 11.9 °F 14.4 °F 77% 30.42 in 10.0 mi NE 6.9 mph - N/A   Clear
2:35 AM 20.8 °F 10.4 °F 14.9 °F 78% 30.40 in 10.0 mi NE 9.2 mph - N/A   Clear
2:55 AM 21.0 °F 9.9 °F 15.3 °F 78% 30.39 in 10.0 mi NE 10.4 mph - N/A   Clear
3:15 AM 21.2 °F 11.7 °F 15.3 °F 78% 30.40 in 10.0 mi ENE 8.1 mph - N/A   Clear
3:35 AM 21.2 °F 9.5 °F 15.6 °F 79% 30.36 in 10.0 mi NE 11.5 mph - N/A   Clear
3:55 AM 21.2 °F 12.6 °F 15.6 °F 79% 30.37 in 10.0 mi NNE 6.9 mph - N/A   Scattered Clouds
4:15 AM 21.6 °F 10.6 °F 15.8 °F 78% 30.35 in 10.0 mi NE 10.4 mph - N/A   Scattered Clouds
4:35 AM 21.4 °F 10.4 °F 16.2 °F 80% 30.34 in 10.0 mi ENE 10.4 mph - N/A   Clear
4:55 AM 21.6 °F 9.3 °F 16.3 °F 80% 30.32 in 10.0 mi NE 12.7 mph - N/A   Clear
5:15 AM 21.7 °F 9.6 °F 16.0 °F 78% 30.31 in 10.0 mi NE 12.7 mph 18.4 mph N/A   Clear
5:35 AM 21.9 °F 9.8 °F 16.3 °F 79% 30.30 in 10.0 mi NE 12.7 mph - N/A   Clear
5:55 AM 22.1 °F 12.0 °F 16.5 °F 79% 30.30 in 10.0 mi ENE 9.2 mph - N/A   Clear
6:15 AM 22.1 °F 10.6 °F 16.5 °F 79% 30.28 in 10.0 mi ENE 11.5 mph 16.1 mph N/A   Clear
6:35 AM 22.5 °F 12.4 °F 16.7 °F 79% 30.26 in 10.0 mi ENE 9.2 mph - N/A   Clear
6:55 AM 22.5 °F 13.2 °F 17.1 °F 80% 30.27 in 10.0 mi ENE 8.1 mph - N/A   Clear
7:15 AM 22.8 °F 14.5 °F 17.1 °F 79% 30.28 in 10.0 mi ENE 6.9 mph - N/A   Clear
7:35 AM 23.0 °F 13.9 °F 17.6 °F 80% 30.27 in 10.0 mi ENE 8.1 mph - N/A   Clear
7:55 AM 23.4 °F 13.5 °F 17.8 °F 79% 30.27 in 10.0 mi ENE 9.2 mph - N/A   Clear
8:15 AM 23.4 °F 16.2 °F 17.6 °F 79% 30.27 in 10.0 mi ENE 5.8 mph - N/A   Clear
8:35 AM 23.5 °F 15.4 °F 17.8 °F 79% 30.27 in 10.0 mi ENE 6.9 mph - N/A   Clear
8:55 AM 23.7 °F 14.7 °F 18.1 °F 79% 30.27 in 10.0 mi East 8.1 mph - N/A   Clear
9:15 AM 23.9 °F 13.5 °F 18.0 °F 78% 30.26 in 10.0 mi East 10.4 mph - N/A   Clear
9:35 AM 24.3 °F 14.6 °F 18.3 °F 78% 30.24 in 10.0 mi East 9.2 mph - N/A   Clear
9:55 AM 24.4 °F 14.2 °F 18.5 °F 78% 30.24 in 10.0 mi East 10.4 mph - N/A   Clear
10:15 AM 24.8 °F 16.9 °F 18.9 °F 78% 30.24 in 7.0 mi East 6.9 mph - N/A   Clear
10:35 AM 24.8 °F 16.1 °F 19.2 °F 79% 30.22 in 7.0 mi East 8.1 mph - N/A   Clear
10:55 AM 24.8 °F 15.3 °F 19.9 °F 82% 30.21 in 5.0 mi East 9.2 mph - N/A   Haze
11:15 AM 24.8 °F 16.1 °F 20.8 °F 85% 30.20 in 4.0 mi East 8.1 mph - N/A   Clear
11:35 AM 24.8 °F 16.9 °F 21.7 °F 88% 30.19 in 4.0 mi ESE 6.9 mph - N/A   Clear
11:55 AM 25.0 °F 17.1 °F 22.1 °F 89% 30.16 in 4.0 mi ESE 6.9 mph - N/A   Clear
12:15 PM 25.0 °F 18.1 °F 22.5 °F 90% 30.15 in 3.0 mi ESE 5.8 mph - N/A   Mist
12:35 PM 25.3 °F 19.7 °F 23.0 °F 91% 30.14 in 3.0 mi East 4.6 mph - N/A   Mist
12:55 PM 25.5 °F 18.7 °F 23.0 °F 90% 30.13 in 3.0 mi East 5.8 mph - N/A   Mist
1:15 PM 25.5 °F 17.8 °F 23.4 °F 92% 30.11 in 3.0 mi ESE 6.9 mph - N/A   Mist
1:35 PM 25.7 °F 19.0 °F 23.5 °F 92% 30.10 in 3.0 mi East 5.8 mph - N/A   Mist
1:55 PM 25.7 °F 19.0 °F 23.7 °F 92% 30.09 in 4.0 mi East 5.8 mph - N/A   Clear
2:15 PM 25.7 °F 19.0 °F 24.4 °F 95% 30.08 in 2.5 mi ESE 5.8 mph - N/A   Unknown
2:35 PM 25.7 °F 19.0 °F 24.8 °F 96% 30.08 in 2.0 mi SE 5.8 mph - N/A   Unknown
2:55 PM 25.7 °F 17.1 °F 25.5 °F 99% 30.06 in 1.8 mi SE 8.1 mph - N/A   Mostly Cloudy
3:15 PM 25.7 °F 18.0 °F 25.5 °F 99% 30.05 in 1.8 mi ESE 6.9 mph - N/A   Overcast
3:35 PM 25.7 °F 20.1 °F 25.7 °F 100% 30.05 in 2.0 mi SE 4.6 mph - N/A   Overcast
3:55 PM 26.1 °F 19.4 °F 25.9 °F 99% 30.05 in 2.0 mi SE 5.8 mph - N/A   Overcast
4:15 PM 26.2 °F 20.7 °F 26.2 °F 100% 30.05 in 1.8 mi SSE 4.6 mph - N/A   Overcast
4:35 PM 26.4 °F 18.0 °F 26.4 °F 100% 30.02 in 1.5 mi East 8.1 mph - N/A   Overcast
4:55 PM 26.4 °F - 26.4 °F 100% 30.04 in 2.5 mi Calm Calm - N/A   Overcast
5:15 PM 26.6 °F 21.2 °F 26.6 °F 100% 30.05 in 3.0 mi SSW 4.6 mph - N/A   Overcast
5:35 PM 26.6 °F 21.2 °F 26.6 °F 100% 30.06 in 2.5 mi SW 4.6 mph - N/A   Overcast
5:55 PM 26.6 °F 22.6 °F 26.6 °F 100% 30.05 in 1.8 mi South 3.5 mph - N/A   Overcast
6:15 PM 26.6 °F 22.6 °F 26.6 °F 100% 30.04 in 1.2 mi South 3.5 mph - N/A   Overcast
6:35 PM 26.8 °F 22.8 °F 26.8 °F 100% 30.06 in 1.2 mi SSW 3.5 mph - N/A   Overcast
6:55 PM 27.3 °F 20.9 °F 27.3 °F 100% 30.06 in 1.5 mi South 5.8 mph - N/A   Overcast
7:15 PM 27.5 °F 20.2 °F 27.5 °F 100% 30.07 in 2.0 mi SSW 6.9 mph - N/A   Overcast
7:35 PM 27.5 °F 20.2 °F 27.5 °F 100% 30.07 in 2.5 mi SW 6.9 mph - N/A   Overcast
7:55 PM 27.5 °F 20.2 °F 27.5 °F 100% 30.06 in 3.0 mi SW 6.9 mph - N/A   Overcast
8:15 PM 27.5 °F 19.3 °F 27.5 °F 100% 30.06 in 3.0 mi SW 8.1 mph - N/A   Overcast
8:35 PM 27.5 °F 20.2 °F 27.5 °F 100% 30.05 in 3.0 mi SW 6.9 mph - N/A   Overcast
8:55 PM 27.5 °F 19.3 °F 27.5 °F 100% 30.05 in 4.0 mi WSW 8.1 mph - N/A   Mostly Cloudy
9:15 PM 27.7 °F 20.4 °F 27.7 °F 100% 30.06 in 5.0 mi WSW 6.9 mph - N/A   Scattered Clouds
9:35 PM 27.9 °F 19.1 °F 27.5 °F 99% 30.06 in 7.0 mi WSW 9.2 mph - N/A   Scattered Clouds
9:55 PM 28.0 °F 19.3 °F 27.3 °F 97% 30.06 in 7.0 mi West 9.2 mph - N/A   Clear
10:15 PM 28.0 °F 19.3 °F 27.1 °F 96% 30.07 in 7.0 mi WSW 9.2 mph - N/A   Clear
10:35 PM 27.9 °F 18.4 °F 27.0 °F 96% 30.07 in 7.0 mi WSW 10.4 mph - N/A   Clear
10:55 PM 27.9 °F 18.4 °F 26.6 °F 95% 30.08 in 10.0 mi WSW 10.4 mph - N/A   Clear
11:15 PM 27.9 °F 19.8 °F 26.6 °F 95% 30.09 in 10.0 mi WSW 8.1 mph - N/A   Clear
11:35 PM 27.7 °F 20.4 °F 26.8 °F 96% 30.09 in 3.0 mi WSW 6.9 mph - N/A   Unknown
11:55 PM 27.9 °F 19.1 °F 26.6 °F 95% 30.09 in 5.0 mi WSW 9.2 mph - N/A   Clear